Location: La Silve
(44.2414°N, 5.8889°E)
Time: 18:32:00
(UTC+00:00)

Tiangong - Pass Details

Date: 22 June 2021
Orbit: 373 x 386 km, 41.5° (Epoch: 28 July)

Event Time Altitude Azimuth Distance (km) Brightness Sun altitude
Exits shadow 02:20:52 21° 185° (S) 928 2.5 -12.8°
Maximum altitude 02:21:46 23° 158° (SSE) 847 2.5 -12.7°
Drops below altitude 10° 02:24:22 10° 103° (ESE) 1,395 4.2 -12.4°
Sets 02:26:40 0° 89° (E) 2,253 5.6 -12.2°
